TELKOM-4

导读

TELKOM-4卫星(又称为Merah Putih)是印度尼西亚(ID)于2018年8月7日发射的通信卫星,由印尼电信卫星运营商Telkomsat运营。该卫星主要服务于印尼群岛区域,提供广播电视传输、宽带互联网接入、企业通信等服务,覆盖偏远地区并支持应急通信,助力弥合印尼数字鸿沟,保障群岛国家全域通信连接,目前仍在服役中,总容量贡献印尼卫星通信服务超过70Gbps的网络资源。

Basic Information
目录编号:
43587
目录名称:
TELKOM-4
国际标识:
2018-064A
轨道中心:
EARTH
卫星名称:
TELKOM-4
卫星全名:
--
卫星状态:
在轨 (已飞行2869 天)
发射日期:
2018-08-07 UTC
国别 :
印度尼西亚 (ID)
星等 :
--
Orbit Information
数据来源 国际轨道数据 AOE轨道数据
星历时间 2026-06-15T05:31:57+0800
6小时前
查看轨道信息
2026-06-14T04:00:00+0800
1天前
查看轨道信息
半长轴 42165.149km 42164.168km
偏心率 0.0001222 0.0001193
轨道倾角 0.017° 0.018°
近地点辐角 52.304° 78.192°
升交点赤经 61.900° 38.568°
平近点角 219.969° 193.386°
近地点 35781.859km 35781km
远地点 35792.165km 35791.062km
周期 1436.118分钟 1436.068分钟
每日圈数 1.002703 1.002738
Detailed Information
使用方式:
暂无
2D Orbit Map
3D Orbit Map
Orbit Altitude Analysis Chart
Orbit Inclination Analysis Chart
Orbit Comprehensive Analysis Chart
View Comprehensive Chart